This demonstration page uses our WeatherBlox Daily Observations layout. Learn more.

Hourly Observations for December 26, 2017

Temp ( °F °C ) Dew Point ( °F °C ) Humidity (%) Winds ( mph kmh ) Pressure ( in mb ) Visibility ( mi km ) Precip ( " mm )
12:53 am 00:53 Mostly Cloudy 22 -5.6 9 -12.8 57 57 W 9 15 30.47 1032 10 16.0934 0 0
1:53 am 01:53 Cloudy 22 -5.6 8 -13.3 55 55 W 7 11 30.48 1032 10 16.0934 0 0
2:53 am 02:53 Cloudy 21 -6.1 9 -12.8 59 59 W 3 6 30.48 1032 10 16.0934 0 0
3:53 am 03:53 Mostly Cloudy 21 -6.1 11 -11.7 65 65 WNW 3 6 30.5 1033 10 16.0934 0 0
4:53 am 04:53 Cloudy 20 -6.7 11 -11.7 68 68 N 6 9 30.5 1033 10 16.0934 0 0
5:53 am 05:53 Cloudy with Light Snow 19 -7.2 11 -11.7 71 71 N 7 11 30.53 1034 9 14.48406 0 0.0254
6:53 am 06:53 Cloudy 18 -7.8 11 -11.7 74 74 N 6 9 30.54 1034 10 16.0934 0 0.0254
7:53 am 07:53 Cloudy 18 -7.8 9 -12.8 68 68 NW 7 11 30.56 1035 10 16.0934 0 0
8:53 am 08:53 Cloudy 18 -7.8 9 -12.8 68 68 NW 6 9 30.59 1036 10 16.0934 0 0
9:53 am 09:53 Cloudy 18 -7.8 9 -12.8 68 68 WNW 9 15 30.6 1036 10 16.0934 0 0
10:53 am 10:53 Cloudy 20 -6.7 10 -12.2 65 65 WNW 6 9 30.62 1037 10 16.0934 0 0
11:53 am 11:53 Sunny 21 -6.1 11 -11.7 65 65 N 5 7 30.59 1036 10 16.0934 0 0
12:33 pm 12:33 Mostly Cloudy 21 -6.1 11 -11.7 65 65 NW 3 6 30.62 1037 10 16.0934 0 0
12:53 pm 12:53 Mostly Cloudy 21 -6.1 11 -11.7 65 65 NNW 7 11 30.58 1036 10 16.0934 0 0
1:31 pm 13:31 Cloudy 21 -6.1 12 -11.1 68 68 WNW 8 13 30.59 1036 10 16.0934 0 0
1:53 pm 13:53 Cloudy 20 -6.7 11 -11.7 68 68 WNW 7 11 30.58 1035 8 12.87472 0 0.0254
2:53 pm 14:53 Cloudy 20 -6.7 11 -11.7 68 68 N 6 9 30.56 1035 10 16.0934 0 0
3:49 pm 15:49 Cloudy with Light Snow 19 -7 12 -11 73 73 NW 8 13 30.59 1036 4 6.43736 0 0.0254
3:53 pm 15:53 Cloudy with Light Snow 19 -7.2 13 -10.6 77 77 NNW 8 13 30.56 1035 5 8.0467 0 0.0254
4:04 pm 16:04 Cloudy 19 -7.2 12 -11.1 74 74 N 7 11 30.59 1036 7 11.26538 0 0.0254
4:53 pm 16:53 Cloudy 19 -7.2 11 -11.7 71 71 NNW 5 7 30.55 1035 10 16.0934 0 0.0254
5:53 pm 17:53 Cloudy with Light Snow 18 -7.8 12 -11.1 77 77 N 6 9 30.57 1035 5 8.0467 0 0.0254
6:53 pm 18:53 Cloudy with Light Snow 16 -8.9 11 -11.7 80 80 NNW 7 11 30.58 1036 4 6.43736 0 0.0254
7:27 pm 19:27 Cloudy with Light Snow 16 -8.9 11 -11.7 80 80 NNW 5 7 30.62 1037 2.5 4.02335 0 0.0254
7:38 pm 19:38 Cloudy with Light Snow 16 -8.9 11 -11.7 80 80 NNW 5 7 30.62 1037 2.5 4.02335 0 0.0254
7:53 pm 19:53 Cloudy with Light Snow 15 -9.4 11 -11.7 84 84 NNW 7 11 30.59 1036 2.5 4.02335 0 0.0254
8:21 pm 20:21 Cloudy with Light Snow 15 -9.4 11 -11.7 84 84 NNW 6 9 30.62 1037 3 4.82802 0 0.0254
8:32 pm 20:32 Cloudy with Light Snow 15 -9.4 11 -11.7 84 84 NW 6 9 30.62 1037 2.5 4.02335 0 0.0254
8:43 pm 20:43 Cloudy with Light Snow 15 -9.4 12 -11.1 88 88 NNW 7 11 30.62 1037 3 4.82802 0 0.0254
8:53 pm 20:53 Cloudy with Light Snow 15 -9.4 10 -12.2 80 80 NW 7 11 30.58 1036 4 6.43736 0 0.0254
9:53 pm 21:53 Cloudy 15 -9.4 9 -12.8 77 77 NNW 7 11 30.59 1036 9 14.48406 0 0.0254
10:53 pm 22:53 Cloudy 14 -10 7 -13.9 73 73 NNW 8 13 30.61 1037 10 16.0934 0 0
11:53 pm 23:53 Cloudy 12 -11.1 1 -17.2 61 61 NNW 10 17 30.63 1037 10 16.0934 0 0

Powered by AerisWeather